CAPE
1 0 0 0 0 0 0 0 0 0 0 0 0 0 0 0 0 0 0 0 0 0 0 0 0 0 0 0 0 0 0 0 0 0 0 0 0 0 0 0 0 0 0 0 0
0 0 0 0 0 0 0 0 0 0 0 0 0 0 0 0 0 0 0 0 0 0 0 0 0 0 0 0 0 0 0 0 0 0 0 0 0 0 0 0 0 0 0 0 0
0 0 0 0 0 0 0 0 0 0 0 0 0 0 0 0 0 0 0 0 0 0 0 0 0 0 0 0 0 0 0 0 0 0 0 0 0 0 0 0 0 0 0 0 0
0 0 0 0 0 0 0 0 0 0 0 0 0 0 0 0 0 0 0 0 0 0 0 0 0 0 0 0 0 0 0 0 0 0 0 0 0 0 0 0 0 0 0 0 0
0 0 0 0 0 0 0 0 0 0 0 0 0 0 0 0 0 0 0 0 0 0 0 0 0 0 0 0 0 0 0 0 0 0 0 0 0 0 0 0 0 0 0 0 0
0 0 0 0 0 0 0 0 0 0 0 0 0 0 0 0 0 0 0 0 0 0 0 0 0 0 0 0 0 0 0 0 0 0 0 0 0 0 0 0 0 0 0 0 0
0 0 0 0 0 0 0 0 0 0 0 0 0 0 0 0 0 0 0 0 0 0 0 0 0 0 0 0 0 0 0 0 0 0 0 0 0 0 0 0 0 0 0 0 0
0 0 0 0 0 0 0 0 0 0 0 0 0 0 0 0 0 0 0 0 0 0 0 0 0 0 0 0 0 0 0 0 0 0 0 0 0 0 0 0 0 0 0 0 0
0 0 0 0 0 0 0 0 0 0 0 0 0 0 0 0 0 0 0 0 0 0 0 0 0 0 0 0 0 0 0 0 0 0 0 0 0 0 0 0 0 0 0 0 0
0 0 0 0 0 0 0 0 0 0 0 0 0 0 0 0 0 0 0 0 0 0 0 0 0 0 0 0 0 0 0 0 0 0 0 0 0 0 0 0 0 0 0 0 0
0 0 0 0 0 0 0 0 0 0 0 0 0 0 0 0 0 0 0 0 0 0 0 0 0 0 0 0 0 0 0 0 0 0 0 0 0 0 0 0 0 0 0 0 0
0 0 0 0 0 0 0 0 0 0 0 0 0 0 0 0 0 0 0 0 0 0 0 0 0 0 0 0 0 0 0 0 0 0 0 0 0 0 0 0 0 0 0 0 0
0 0 0 0 0 0 0 0 0 0 0 0 0 0 0 0 0 0 0 0 0 0 0 0 0 0 0 0 0 0 0 0 0 0 0 0 0 0 0 0 0 0 0 0 0
0 0 0 0 0 0 0 0 0 0 0 0 0 0 0 0 0 0 0 0 0 0 0 0 0 0 0 0 0 0 0 0 0 0 0 0 0 0 0 0 0 0 0 0 0
0 0 0 0 0 0 0 0 0 0 0 0 0 0 0 0 0 0 0 0 0 0 0 0 0 0 0 0 0 0 0 0 0 0 0 0 0 0 0 0 0 0 0 0 0
0 0 0 0 0 0 0 0 0 0 0 0 0 0 0 0 0 0 0 0 0 0 0 0 0 0 0 0 0 0 0 0 0 0 0 0 0 0 0 0 0 0 0 0 0
0 0 0 0 0 0 0 0 0 0 0 0 0 0 0 0 0 0 0 0 0 0 0 0 0 0 0 0 0 0 0 0 0 0 0 0 0 0 0 0 0 0 0 0 0
0 0 0 0 0 0 0 0 0 0 0 0 0 0 0 0 0 0 0 0 0 0 0 0 0 0 0 0 0 0 0 0 0 0 0 0 0 0 0 0 0 0 0 0 0
0 0 0 0 0 0 0 0 0 0 0 0 0 0 0 0 0 0 0 0 0 0 0 0 0 0 0 0 0 0 0 0 0 0 0 0 0 0 0 0 0 0 0 0 0
0 0 0 0 0 0 0 0 0 0 0 0 0 0 0 0 0 0 0 0 0 0 0 0 0 0 0 0 0 0 0 0 0 0 0 0 0 0 0 0 0 0 0 0 0
0 0 0 0 0 0 0 0 0 0 0 0 0 0 0 0 0 0 0 0 0 0 0 0 0 0 0 0 0 0 0 0 0 0 0 0 0 0 0 0 0 0 0 0 0
0 0 0 0 0 0 0 0 0 0 0 0 0 0 0 0 0 0 0 0 0 0 0 0 0 0 0 0 0 0 0 0 0 0 0 0 0 0 0 0 0 0 0 0 0
0 0 0 0 0 0 0 0 0 0 0 0 0 0 0 0 0 0 0 0 0 0 0 0 0 0 0 0 0 0 0 0 0 0 0 0 0 0 0 0 0 0 0 0 0
0 0 0 0 0 0 0 0 0 0 0 0 0 0 0 0 0 0 0 0 0 0 0 0 0 0 0 0 0 0 0 0 0 0 0 0 0 0 0 0 0 0 0 0 0
0 0 0 0 0 0 0 0 0 0 0 0 0 0 0 0 0 0 0 0 0 0 0 0 0 0 0 0 0 0 0 0 0 0 0 0 0 0 0 0 0 0 0 0 0
0 0 0 0 0 0 0 0 0 0 0 0 0 0 0 0 0 0 0 0 0 0 0 0 0 0 0 0 0 0 0 0 0 0 0 0 0 0 0 0 0 0 0 0 0
0 0 0 0 0 0 0 0 0 0 0 0 0 0 0 0 0 0 0 0 0 0 0 0 0 0 0 0 0 0 0 0 0 0 0 0 0 0 0 0 0 0 0 0 0
CIN
0 0 0 0 0 0 0 0 0 0 0 0 0 0 0 0 0 0 0 0 0 0 0 0 0 0 0 0 0 0 0 0 0 0 0 0 0 0 0 0 0 0 0 0 0
0 0 0 0 0 0 0 0 0 0 0 0 0 0 0 0 0 0 0 0 0 0 0 0 0 0 0 0 0 0 0 0 0 0 0 0 0 0 0 0 0 0 0 0 0
0 0 0 0 0 0 0 0 0 0 0 0 0 0 0 0 0 0 0 0 0 0 0 0 0 0 0 0 0 0 0 0 0 0 0 0 0 0 0 0 0 0 0 0 0
0 0 0 0 0 0 0 0 0 0 0 0 0 0 0 0 0 0 0 0 0 0 0 0 0 0 0 0 0 0 0 0 0 0 0 0 0 0 0 0 0 0 0 0 0
0 0 0 0 0 0 0 0 0 0 0 0 0 0 0 0 0 0 0 0 0 0 0 0 0 0 0 0 0 0 0 0 0 0 0 0 0 0 0 0 0 0 0 0 0
0 0 0 0 0 0 0 0 0 0 0 0 0 0 0 0 0 0 0 0 0 0 0 0 0 0 0 0 0 0 0 0 0 0 0 0 0 0 0 0 0 0 0 0 0
0 0 0 0 0 0 0 0 0 0 0 0 0 0 0 0 0 0 0 0 0 0 0 0 0 0 0 0 0 0 0 0 0 0 0 0 0 0 0 0 0 0 0 0 0
0 0 0 0 0 0 0 0 0 0 0 0 0 0 0 0 0 0 0 0 0 0 0 0 0 0 0 0 0 0 0 0 0 0 0 0 0 0 0 0 0 0 0 0 0
0 0 0 0 0 0 0 0 0 0 0 0 0 0 0 0 0 0 0 0 0 0 0 0 0 0 0 0 0 0 0 0 0 0 0 0 0 0 0 0 0 0 0 0 0
0 0 0 0 0 0 0 0 0 0 0 0 0 0 0 0 0 0 0 0 0 0 0 0 0 0 0 0 0 0 0 0 0 0 0 0 0 0 0 0 0 0 0 0 0
0 0 0 0 0 0 0 0 0 0 0 0 0 0 0 0 0 0 0 0 0 0 0 0 0 0 0 0 0 0 0 0 0 0 0 0 0 0 0 0 0 0 0 0 0
0 0 0 0 0 0 0 0 0 0 0 0 0 0 0 0 0 0 0 0 0 0 0 0 0 0 0 0 0 0 0 0 0 0 0 0 0 0 0 0 0 0 0 0 0
0 0 0 0 0 0 0 0 0 0 0 0 0 0 0 0 0 0 0 0 0 0 0 0 0 0 0 0 0 0 0 0 0 0 0 0 0 0 0 0 0 0 0 0 0
0 0 0 0 0 0 0 0 0 0 0 0 0 0 0 0 0 0 0 0 0 0 0 0 0 0 0 0 0 0 0 0 0 0 0 0 0 0 0 0 0 0 0 0 0
0 0 0 0 0 0 0 0 0 0 0 0 0 0 0 0 0 0 0 0 0 0 0 0 0 0 0 0 0 0 0 0 0 0 0 0 0 0 0 0 0 0 0 0 0
0 0 0 0 0 0 0 0 0 0 0 0 0 0 0 0 0 0 0 0 0 0 0 0 0 0 0 0 0 0 0 0 0 0 0 0 0 0 0 0 0 0 0 0 0
0 0 0 0 0 0 0 0 0 0 0 0 0 0 0 0 0 0 0 0 0 0 0 0 0 0 0 0 0 0 0 0 0 0 0 0 0 0 0 0 0 0 0 0 0
0 0 0 0 0 0 0 0 0 0 0 0 0 0 0 0 0 0 0 0 0 0 0 0 0 0 0 0 0 0 0 0 0 0 0 0 0 0 0 0 0 0 0 0 0
0 0 0 0 0 0 0 0 0 0 0 0 0 0 0 0 0 0 0 0 0 0 0 0 0 0 0 0 0 0 0 0 0 0 0 0 0 0 0 0 0 0 0 0 0
0 0 0 0 0 0 0 0 0 0 0 0 0 0 0 0 0 0 0 0 0 0 0 0 0 0 0 0 0 0 0 0 0 0 0 0 0 0 0 0 0 0 0 0 0
0 0 0 0 0 0 0 0 0 0 0 0 0 0 0 0 0 0 0 0 0 0 0 0 0 0 0 0 0 0 0 0 0 0 0 0 0 0 0 0 0 0 0 0 0
0 0 0 0 0 0 0 0 0 0 0 0 0 0 0 0 0 0 0 0 0 0 0 0 0 0 0 0 0 0 0 0 0 0 0 0 0 0 0 0 0 0 0 0 0
0 0 0 0 0 0 0 0 0 0 0 0 0 0 0 0 0 0 0 0 0 0 0 0 0 0 0 0 0 0 0 0 0 0 0 0 0 0 0 0 0 0 0 0 0
0 0 0 0 0 0 0 0 0 0 0 0 0 0 0 0 0 0 0 0 0 0 0 0 0 0 0 0 0 0 0 0 0 0 0 0 0 0 0 0 0 0 0 0 0
0 0 0 0 0 0 0 0 0 0 0 0 0 0 0 0 0 0 0 0 0 0 0 0 0 0 0 0 0 0 0 0 0 0 0 0 0 0 0 0 0 0 0 0 0
0 0 0 0 0 0 0 0 0 0 0 0 0 0 0 0 0 0 0 0 0 0 0 0 0 0 0 0 0 0 0 0 0 0 0 0 0 0 0 0 0 0 0 0 0
0 0 0 0 0 0 0 0 0 0 0 0 0 0 0 0 0 0 0 0 0 0 0 0 0 0 0 0 0 0 0 0 0 0 0 0 0 0 0 0 0 0 0 0 0
Wind_Speed
15 15 15 15 15 15 18 17 17 19 18 13 9 9 11 14 20 26 26 18 19 21 22 23 19 17 15 16 18 18 21 24 26 30 29 32 33 30 33 31 33 28 33 31 33
16 15 15 15 14 14 15 16 14 15 17 12 8 8 9 12 5 26 19 21 19 21 24 24 22 19 16 17 19 19 21 24 25 31 35 39 35 38 35 38 39 42 35 37 37
16 16 14 13 12 10 10 9 8 9 10 12 9 8 10 12 14 18 22 21 19 26 28 26 22 21 19 20 21 21 23 25 25 30 34 36 38 38 38 39 39 45 49 47 42
8 9 9 8 8 7 7 7 7 9 11 12 15 10 15 7 18 14 22 22 21 30 30 29 25 23 23 21 22 20 23 25 27 32 35 35 35 43 37 40 41 43 46 45 44
9 9 9 9 10 10 9 10 10 11 12 15 20 19 19 22 22 15 21 24 28 32 34 31 29 26 25 23 23 24 25 25 26 32 34 34 42 40 39 41 45 48 47 48 48
12 12 12 12 13 13 13 13 14 15 16 18 20 24 21 24 14 21 22 26 28 31 33 34 28 27 28 26 25 25 24 27 31 33 31 41 38 32 28 44 51 51 51 51 51
15 15 16 16 16 16 16 16 16 16 19 20 21 20 27 24 25 25 25 27 27 29 32 32 29 24 23 26 24 25 30 26 32 36 32 41 36 39 40 46 50 53 52 52 51
18 18 19 19 20 22 21 20 18 21 23 22 21 20 22 22 25 27 25 24 25 27 27 29 32 28 27 22 29 26 31 34 31 37 35 40 44 41 46 51 52 50 52 51 52
19 20 21 22 23 24 23 21 22 24 21 21 20 17 19 23 26 27 27 25 23 25 29 27 29 32 28 27 30 35 37 36 36 33 40 42 46 47 49 48 51 51 51 51 51
21 22 23 24 24 26 23 20 20 22 21 18 20 18 21 24 26 28 25 25 24 22 23 30 28 33 36 35 38 38 38 35 38 38 44 44 48 52 49 48 50 51 49 48 46
22 23 24 25 24 25 21 19 20 19 23 19 19 18 20 24 22 28 25 22 22 25 26 27 32 35 35 35 31 33 37 38 34 34 47 43 49 49 48 48 50 47 47 47 44
23 24 24 25 23 24 20 19 18 17 19 19 19 19 20 21 22 28 26 21 24 25 24 25 31 28 26 32 33 33 39 42 34 34 42 43 47 41 43 47 45 43 45 45 43
23 24 24 25 21 20 20 18 18 18 19 19 18 19 21 21 20 27 26 22 23 25 26 25 22 21 26 32 36 32 40 41 40 38 33 46 37 40 40 43 45 40 41 39 41
23 23 24 24 18 19 19 20 20 19 20 19 18 18 19 19 19 24 24 22 22 23 22 19 19 23 24 31 33 36 29 31 33 37 44 39 44 37 39 45 45 42 41 35 35
22 22 22 20 16 18 18 19 19 19 24 17 16 17 19 20 22 24 24 22 22 21 21 22 20 21 25 26 27 27 28 30 28 30 34 37 38 37 37 44 45 43 38 29 26
18 21 21 19 18 17 18 18 19 22 20 16 17 20 20 22 22 25 23 22 21 20 20 19 17 17 19 22 23 26 29 27 28 30 39 34 39 37 41 40 38 38 36 29 26
16 19 18 18 19 18 17 18 23 19 20 18 18 22 22 23 22 24 24 24 24 25 28 21 17 18 19 24 23 32 34 38 39 43 41 30 36 30 31 33 33 35 33 30 28
15 18 18 16 17 17 18 18 22 18 16 19 21 22 23 23 21 24 24 24 23 24 24 24 23 21 23 25 29 32 32 35 42 43 39 30 31 32 28 28 29 30 32 30 30
14 17 17 19 19 17 17 20 20 17 16 15 19 22 21 19 22 23 24 23 22 23 25 23 21 21 22 23 26 28 32 25 31 31 38 30 29 29 25 28 30 33 34 35 34
16 18 17 19 17 16 16 19 19 16 14 16 20 19 21 20 23 23 24 20 21 21 23 21 25 21 22 23 23 24 21 32 32 41 46 36 34 31 30 30 32 35 36 37 35
17 20 17 15 15 16 16 16 16 14 15 16 17 18 18 21 20 23 24 23 19 19 21 22 22 26 25 24 25 24 27 26 27 29 39 43 36 21 24 27 31 33 36 35 35
17 22 18 14 16 17 18 17 15 14 14 18 18 18 18 16 19 21 25 22 14 16 23 19 24 27 28 22 19 22 23 22 32 34 27 32 35 21 22 26 31 32 35 35 35
20 20 18 17 20 18 20 19 17 16 15 16 16 17 17 17 21 18 19 19 12 16 20 18 25 34 30 25 23 22 20 19 24 26 28 32 31 26 27 29 33 32 36 37 38
20 24 21 19 23 21 20 21 20 16 17 16 17 16 17 19 19 22 22 19 13 15 16 16 21 23 28 30 25 25 23 17 19 29 29 26 31 27 27 31 33 32 34 38 39
23 28 22 25 23 20 18 18 17 17 17 15 19 17 16 20 20 22 19 19 16 14 16 18 25 21 20 19 22 21 22 19 21 21 28 29 28 27 28 29 31 31 34 37 38
29 27 25 27 25 21 22 22 19 18 16 20 20 17 15 18 18 19 17 17 20 14 14 17 26 26 29 20 18 22 20 19 20 20 24 25 28 26 24 24 30 31 34 36 38
28 24 26 28 27 25 26 23 20 18 21 22 18 17 16 16 16 21 17 20 17 16 13 18 21 28 29 24 25 26 22 19 19 17 18 24 24 24 25 27 31 30 30 32 35
Wind_Direction
350 348 346 348 347 349 357 356 357 358 356 339 315 322 347 354 5 17 14 327 311 307 306 313 354 341 356 342 329 317 307 301 302 300 301 303 305 306 306 300 299 303 302 303 305
349 347 344 347 343 350 355 358 351 354 357 343 312 282 180 139 346 13 340 333 323 321 336 345 4 359 356 346 341 324 318 312 310 304 298 297 299 302 305 299 293 292 297 300 300
348 345 340 339 336 328 334 337 337 334 341 348 329 287 202 172 338 338 331 329 326 339 29 31 44 34 9 359 346 339 321 323 322 320 312 303 299 301 298 296 299 294 290 293 293
320 318 314 311 309 310 301 310 319 333 342 340 341 326 340 216 0 303 321 325 330 356 9 14 27 26 23 8 4 346 348 340 331 327 323 316 313 301 298 294 300 298 295 293 292
309 308 299 299 305 303 298 300 300 313 325 339 348 338 360 10 2 297 317 333 1 11 14 29 21 35 30 31 21 4 353 350 345 338 333 329 317 312 301 301 300 298 296 292 288
309 302 297 302 309 305 298 295 299 306 312 327 339 357 13 13 291 316 324 354 3 18 18 22 32 42 35 30 26 24 18 5 0 351 351 335 333 333 324 314 303 301 295 292 288
307 305 309 309 305 301 296 298 304 316 323 325 335 358 13 19 357 334 348 13 8 21 20 18 26 31 31 25 23 24 12 13 3 354 352 340 343 335 332 323 315 304 299 294 290
313 312 310 305 305 307 296 298 313 314 317 330 340 357 24 10 358 348 340 5 3 16 23 7 19 33 26 26 18 9 8 358 356 355 357 351 338 338 333 326 320 318 308 300 292
314 312 312 311 311 309 306 312 314 322 326 330 348 7 17 345 347 343 359 0 6 17 13 20 28 24 14 12 6 5 355 354 349 356 349 347 338 339 333 333 326 323 317 311 298
313 313 314 314 316 315 320 334 331 342 333 349 357 0 357 351 346 345 354 4 9 8 17 13 24 18 12 11 357 352 356 358 352 350 345 342 336 333 338 338 335 332 331 322 313
316 317 316 318 323 321 336 338 337 339 346 357 353 358 351 335 359 341 348 0 354 4 9 17 9 6 13 17 21 14 4 358 359 356 345 346 338 338 342 347 340 343 343 337 328
314 315 315 317 326 336 348 347 349 346 345 347 353 353 357 349 351 337 345 355 350 3 11 11 5 19 26 19 17 12 5 360 2 358 350 346 340 350 352 352 351 349 348 346 337
314 316 314 312 326 339 353 352 350 350 340 338 346 348 347 345 352 341 344 346 348 356 0 9 27 35 27 20 12 16 7 3 358 359 1 346 351 352 359 357 357 360 356 356 340
317 318 316 317 327 332 338 339 346 349 336 335 335 343 350 353 351 349 347 342 345 357 16 23 30 24 22 13 13 7 14 5 3 3 353 2 346 355 360 358 0 0 360 2 353
317 318 323 330 333 335 341 342 348 345 324 337 338 351 350 349 341 340 341 333 339 358 11 4 18 23 16 18 17 10 4 2 7 8 3 2 353 353 0 358 1 3 5 4 3
336 325 321 322 329 332 336 346 341 327 324 334 335 335 339 339 339 328 330 339 333 353 8 14 21 28 20 16 16 3 6 11 11 8 0 4 358 354 357 360 1 4 4 3 0
339 338 330 325 319 334 341 340 321 320 331 333 333 332 333 332 334 330 327 323 333 335 343 0 13 18 17 9 10 6 5 358 357 357 356 3 356 355 358 0 2 2 2 2 359
338 329 331 336 333 336 330 326 312 326 329 332 330 331 328 331 331 328 324 323 328 339 348 354 354 4 5 6 0 4 7 3 351 351 350 356 355 357 359 358 2 4 2 359 352
337 331 330 321 318 333 328 311 314 319 331 336 335 330 331 334 331 329 325 318 325 335 342 349 351 355 358 3 4 1 1 9 358 357 351 358 353 349 2 3 3 1 0 357 354
319 320 321 317 323 325 321 312 316 325 332 331 325 329 326 329 328 329 324 320 326 334 342 342 343 350 356 359 5 4 14 358 0 351 347 351 351 349 355 355 356 357 355 352 351
316 311 315 322 327 318 310 315 321 320 323 323 322 322 324 325 327 324 315 320 326 336 344 344 344 344 350 354 354 358 355 2 1 357 349 346 350 354 348 350 351 353 351 350 347
307 302 311 312 307 312 306 314 323 320 321 318 321 318 318 324 326 324 314 317 336 340 333 344 340 337 342 355 359 355 354 356 351 350 349 344 340 356 350 351 350 347 347 347 345
296 298 306 303 297 294 304 309 312 313 312 318 315 316 320 318 320 321 321 327 335 334 335 343 336 333 341 351 357 352 351 348 352 350 340 344 342 358 353 349 344 343 346 346 346
290 290 295 291 296 296 296 298 301 308 308 307 312 314 314 310 314 317 318 327 330 327 334 341 333 331 332 337 347 340 342 337 339 338 339 320 313 318 330 340 344 342 344 346 347
277 282 287 290 288 283 290 301 301 300 301 301 304 295 301 307 310 308 312 320 325 326 331 334 328 328 320 320 324 311 320 320 315 309 328 325 326 317 329 336 339 340 342 346 348
268 275 283 286 288 278 278 286 283 293 292 297 293 298 289 296 300 311 314 318 319 327 326 331 328 334 332 332 331 322 315 320 308 308 308 305 308 308 311 323 339 343 346 347 350
260 274 279 281 276 276 275 278 281 283 288 292 289 295 286 285 296 310 314 318 319 321 319 327 330 335 333 348 343 340 357 351 349 345 340 337 335 342 342 343 346 346 346 349 351